Regional Weather Roundup
Issued by NWS Cleveland, OH

Home | Current Version | Previous Version | Graphics & Text | Print | Product List | Glossary On
Versions: 1 2 3 4 5 6 7 8 9 10 11 12 13 14 15 16 17 18 19 20 21 22 23 24 25 26 27 28 29 30 31 32 33 34 35 36 37 38 39 40 41 42 43 44 45 46 47 48 49 50
000
ASUS41 KCLE 291212
RWRCLE
OHIO REGIONAL WEATHER ROUNDUP
NATIONAL WEATHER SERVICE WILMINGTON, OH
800 AM EDT SAT APR 29 2017

NOTE: "FAIR" INDICATES FEW OR NO CLOUDS BELOW 12,000 FEET WITH NO
SIGNIFICANT WEATHER AND/OR OBSTRUCTIONS TO VISIBILITY.

OHZ001>008-015>018-024>027-034-035-043-044-291300-
   NORTHWEST OHIO

CITY           SKY/WX    TMP DP  RH WIND       PRES   REMARKS
DEFIANCE       CLOUDY    54  53  97 N9        30.05R FOG
FINDLAY        LGT RAIN  57  53  86 NE15      29.98F FOG
TOLEDO EXPRESS CLOUDY    54  54 100 N7        30.05R FOG
TOLEDO EXEC    CLOUDY    56  55  97 NE7       30.06S
LIMA           LGT RAIN  55  55 100 CALM      30.04R
$$

OHZ009>014-019>023-028>033-038-089-291300-
   NORTHEAST OHIO

CITY           SKY/WX    TMP DP  RH WIND       PRES   REMARKS
CLE-HOPKINS    LGT RAIN  57  53  86 N7        30.09R FOG
CLE-LAKEFRONT  LGT RAIN  54  53  97 VRB3      30.07R FOG
CUY CO. ARPT   CLOUDY    57  55  94 N6        30.07R FOG
LORAIN-ELYRIA  LGT RAIN  55  52  89 NE8       30.06R FOG
ASHTABULA      FOG       55  55 100 CALM      30.07R VSB 1/2
AKRON-CANTON   CLOUDY    57  53  86 CALM      30.05R
WOOSTER        CLOUDY    55  53  93 N9        30.05R
MANSFIELD      LGT RAIN  55  54  96 N12       30.02R FOG
YOUNGSTOWN     CLOUDY    55  53  93 CALM      30.07R
$$

OHZ042-051>053-060>062-070>072-077>081-291300-
  SOUTHWEST OHIO

CITY           SKY/WX    TMP DP  RH WIND       PRES   REMARKS
CINC-COVINGTON CLOUDY    63  62  97 E7        29.97S
CINC-LUNKEN    CLOUDY    63  63 100 NE5       29.98F
HAMILTON       TSTM      64  64 100 E7        29.98F
DAYTON         RAIN      62  62 100 N5        30.03R FOG
WRIGHT-PAT AFB LGT RAIN  61  61 100 N5        30.02R FOG
DAYTON GENERAL TSTM      63  62  97 VRB3      30.00R VSB 1
WILMINGTON     CLOUDY    62  62 100 S5        30.01R
$$

OHZ036-037-039>041-045>050-054>059-063>069-073>076-082>088-291300-
  CENTRAL AND SOUTHEAST OHIO

CITY           SKY/WX    TMP DP  RH WIND       PRES   REMARKS
COLUMBUS       CLOUDY    62  62 100 S5        30.03R
OSU AIRPORT    CLOUDY    61  61 100 S3        30.04R FOG
BOLTON FIELD   PTSUNNY   61  61 100 S3        30.04R FOG
RICKENBACK AFB PTSUNNY   61  61 100 SW5       30.04R
NEWARK         FAIR      63  60  90 S5        30.03R
MARION         LGT RAIN  58  57  97 S6        30.03R FOG
LANCASTER      FAIR      63  60  90 S5        30.05R
ZANESVILLE     PTSUNNY   63  60  90 S8        30.04F
NEW PHILLY     LGT RAIN  64  62  93 CALM      30.00F
$$



USA.gov is the U.S. government's official web portal to all federal, state and local government web resources and services.